[[{"header":{"parameterUnit":"m.s-1","parameterCategory":1,"la1":30.2991,"la2":30.254,"lo1":-89.0895,"lo2":-89.0444,"dy":0.0017,"dx":0.0017,"nx":28,"ny":28,"refTime":"2024-07-05T21:00:00:Z","depth":0,"parameterNumber":2,"parameterNumberName":"U-component_of_WINDS"},"data":[0,0,0,0,0,0,0,0,0,0,0,0,0,0,0,0,0,0,0,0,0,0,0,0,0,0,0,0,0,0,0,0,0,0,0,0,0,0,0,0,0,0,0,0,0,0,0,0,0,0,0,0,0,0,0,0,0,0,2.5121,2.5123,0,2.5318,2.532,2.5322,2.5392,2.5391,2.5391,2.539,2.5591,2.5597,2.5603,0,0,0,0,0,0,0,0,0,0,0,0,0,2.4808,2.4813,2.5121,2.5123,2.5126,2.5317,2.532,2.5323,2.5392,2.5391,2.5391,2.539,2.5589,2.5596,2.5603,0,0,0,0,0,0,0,0,0,0,0,0,0,2.4968,2.4815,2.512,2.5183,2.5191,2.5317,2.532,2.5323,2.5392,2.5391,2.539,2.5389,2.5587,2.5595,2.5604,2.5681,0,0,2.5632,2.5636,0,0,0,0,0,0,0,0,2.4959,2.4979,2.5172,2.5179,2.5188,2.5329,2.5283,2.5443,2.5393,2.5316,2.539,2.5389,2.5505,2.552,2.556,2.5691,2.5699,2.5633,2.5638,2.5642,2.5645,0,0,0,0,0,0,0,2.4947,2.4971,2.5199,2.5174,2.5185,2.5203,2.5224,2.5314,2.5414,2.5323,2.5328,2.5351,2.5509,2.5551,2.5565,2.5702,2.5632,2.564,2.5646,2.565,2.5911,2.5912,0,0,0,0,0,0,2.4926,2.4961,2.5192,2.5204,2.5068,2.5209,2.5233,2.5285,2.5413,2.5432,2.5351,2.5353,2.5536,2.5554,2.5572,2.5672,2.5642,2.565,2.5656,2.5909,2.5911,2.5912,0,0,0,0,0,0,2.4919,2.4945,2.5184,2.5085,2.5116,2.5216,2.5273,2.5289,2.5331,2.5435,2.5453,2.5375,2.5536,2.556,2.5655,2.568,2.5655,2.5663,2.5907,2.591,2.5912,2.5872,0,0,0,0,0,0,2.4909,2.4942,2.4972,2.5085,2.5121,2.5262,2.5275,2.5294,2.5347,2.5351,2.5462,2.548,2.5537,2.5641,2.5663,2.5692,2.567,2.5905,2.5908,2.5911,2.5871,2.5872,2.5873,0,0,0,0,0,2.4898,2.4952,2.4973,2.5,2.516,2.5263,2.5284,2.5349,2.5348,2.5379,2.5447,2.5476,2.5674,2.565,2.5676,2.5708,2.5904,2.5907,2.5911,2.5871,2.5872,2.5873,0,0,0,0,0,0,2.4837,2.4967,2.4992,2.5084,2.5162,2.5275,2.5315,2.5348,2.5428,2.5428,2.5506,2.5531,2.562,2.5674,2.5644,2.5791,2.5791,2.58,2.5752,2.5754,2.5755,2.5739,2.5677,0,0,0,0,0,2.4835,2.4908,2.5018,2.5088,2.5127,2.5214,2.5262,2.5306,2.5389,2.5423,2.5497,2.5577,2.5659,2.571,2.579,2.5881,2.5907,2.5916,2.5917,2.5918,2.5923,2.5978,2.5984,2.5924,2.5924,2.5924,0,0,2.483,2.491,2.4951,2.5079,2.5144,2.5219,2.5241,2.5318,2.5375,2.5434,2.5529,2.5587,2.5682,2.5776,2.5821,2.5824,2.5947,2.5922,2.5921,2.5927,2.5982,2.5988,2.5993,2.5926,2.5926,2.5925,0,0,2.4859,2.4927,2.4994,2.5061,2.5161,2.522,2.5236,2.5345,2.5386,2.5483,2.553,2.5599,2.5736,2.5803,2.5854,2.5915,2.5946,2.5939,2.5944,2.5996,2.6001,2.6006,2.6027,2.6034,2.5945,2.5945,2.5945,0,2.484,2.4954,2.5024,2.5101,2.5156,2.5216,2.5285,2.5346,2.5467,2.5504,2.5506,2.5682,2.5751,2.5862,2.5877,2.5917,2.5939,2.5925,2.5995,2.6,2.6005,2.6027,2.6035,2.5944,2.5944,2.5944,2.5944,0,2.4926,2.5005,2.5048,2.5164,2.5225,2.5297,2.538,2.5433,2.5474,2.5533,2.5632,2.5717,2.5816,2.5847,2.5886,2.5965,2.5964,2.5979,2.598,2.6008,2.603,2.6039,2.5942,2.5942,2.5943,2.5943,0,0,2.4918,2.5077,2.5091,2.5146,2.5263,2.5326,2.5403,2.5501,2.5545,2.5629,2.5695,2.5812,2.5829,2.5888,2.5936,2.5982,2.6026,2.5993,2.5996,2.5995,2.612,2.6106,2.6115,2.6048,2.605,2.6052,2.6112,0,2.4962,2.5101,2.5169,2.5279,2.5353,2.5414,2.5481,2.5561,2.5619,2.5692,2.5758,2.584,2.5855,2.5891,2.594,2.601,2.6052,2.6007,2.6111,2.6114,2.6083,2.6126,2.6111,2.6163,2.6121,2.6122,2.6123,0,2.5031,2.5115,2.5232,2.5344,2.5378,2.5437,2.5534,2.5603,2.5696,2.5736,2.5804,2.5852,2.5936,2.5934,2.6053,2.6021,2.6069,2.611,2.6114,2.6124,2.6118,2.6137,2.6182,2.6189,2.6138,2.6136,2.6135,0,2.5014,2.5156,2.5246,2.5291,2.5423,2.5464,2.5521,2.5613,2.5669,2.5755,2.5792,2.5887,2.5938,2.6011,2.6084,2.6075,2.6196,2.6199,2.6231,2.623,2.6252,2.6249,2.6303,2.6285,2.6285,2.6284,2.6284,0,2.5055,2.5124,2.524,2.5294,2.5375,2.5454,2.5532,2.5594,2.5676,2.5745,2.5804,2.5867,2.596,2.6036,2.6094,2.6184,2.6207,2.6242,2.6256,2.6236,2.6231,2.6266,2.6264,2.6287,2.6286,2.6286,2.6285,0,2.5048,2.5128,2.5229,2.5348,2.538,2.5434,2.5536,2.5592,2.5655,2.5742,2.5767,2.5866,2.5959,2.6039,2.6161,2.62,2.6293,2.6311,2.6261,2.6268,2.6296,2.6292,2.6374,2.6389,2.636,2.6361,2.6361,0,2.5068,2.5123,2.5248,2.5299,2.5356,2.5436,2.5494,2.5576,2.5634,2.5747,2.579,2.5887,2.5969,2.6114,2.6198,2.6292,2.6312,2.6335,2.6327,2.6305,2.6312,2.6307,2.6314,2.6334,2.6334,2.6334,2.6334,0,2.5095,2.5134,2.5215,2.5312,2.538,2.546,2.5541,2.5579,2.5677,2.574,2.5835,2.5899,2.6025,2.6121,2.6225,2.6286,2.6326,2.6336,2.6349,2.6327,2.6296,2.6313,2.626,2.6333,2.6333,2.6333,2.6333,2.6333,2.5103,2.5155,2.5253,2.5343,2.5413,2.5489,2.5548,2.562,2.5701,2.581,2.5855,2.5952,2.6048,2.6192,2.6253,2.6332,2.6338,2.6356,2.6361,2.6363,2.636,2.6285,2.6351,2.6352,2.6352,2.6352,2.6352,0,2.5133,2.52,2.5282,2.5395,2.5466,2.55,2.5593,2.5651,2.5736,2.5822,2.5902,2.6013,2.6108,2.62,2.63,2.6345,2.6367,2.6369,2.6365,2.6379,2.6348,2.6327,2.635,2.635,2.635,2.635,2.635,2.635,2.5158,2.5249,2.5299,2.5427,2.5494,2.559,2.564,2.5711,2.5781,2.5902,2.5981,2.6042,2.6131,2.6238,2.6327,2.6352,2.6386,2.6383,2.6413,2.6382,2.6381,2.638,2.636,2.639,2.639,2.6437,2.6437,2.6437]},{"header":{"parameterUnit":"m.s-1","parameterCategory":1,"la1":30.2991,"la2":30.254,"lo1":-89.0895,"lo2":-89.0444,"dy":0.0017,"dx":0.0017,"nx":28,"ny":28,"refTime":"2024-07-05T21:00:00:Z","depth":0,"parameterNumber":3,"parameterNumberName":"V-component_of_WINDS"},"data":[0,0,0,0,0,0,0,0,0,0,0,0,0,0,0,0,0,0,0,0,0,0,0,0,0,0,0,0,0,0,0,0,0,0,0,0,0,0,0,0,0,0,0,0,0,0,0,0,0,0,0,0,0,0,0,0,0,0,2.3607,2.3608,0,2.3757,2.3759,2.376,2.3735,2.3732,2.373,2.3727,2.3882,2.3888,2.3895,0,0,0,0,0,0,0,0,0,0,0,0,0,2.3296,2.3302,2.3606,2.3608,2.361,2.3757,2.3759,2.3761,2.3735,2.3732,2.3729,2.3726,2.388,2.3887,2.3895,0,0,0,0,0,0,0,0,0,0,0,0,0,2.3437,2.3303,2.3606,2.3615,2.3617,2.3756,2.3759,2.3761,2.3736,2.3732,2.3728,2.3725,2.3877,2.3887,2.3896,2.4036,0,0,2.3926,2.3931,0,0,0,0,0,0,0,0,2.3429,2.3448,2.3612,2.3615,2.3618,2.3723,2.3706,2.3853,2.3737,2.3691,2.3727,2.3723,2.3832,2.3845,2.3882,2.4043,2.405,2.3927,2.3933,2.3937,2.394,0,0,0,0,0,0,0,2.3419,2.3442,2.3666,2.3614,2.3618,2.3611,2.3627,2.3734,2.3782,2.3695,2.3693,2.3711,2.3833,2.3873,2.3886,2.4052,2.3927,2.3936,2.3942,2.3946,2.4331,2.4336,0,0,0,0,0,0,2.3407,2.3434,2.3661,2.367,2.3512,2.362,2.3638,2.3693,2.3781,2.379,2.3715,2.371,2.3858,2.3874,2.3891,2.4058,2.3937,2.3947,2.3952,2.4327,2.4332,2.4337,0,0,0,0,0,0,2.34,2.3427,2.3655,2.3552,2.358,2.363,2.3692,2.3698,2.3738,2.3796,2.3804,2.3747,2.3856,2.3877,2.3999,2.4063,2.3951,2.396,2.4322,2.4329,2.4335,2.4395,0,0,0,0,0,0,2.3391,2.3425,2.3479,2.3553,2.3586,2.3761,2.3696,2.3704,2.3755,2.375,2.3828,2.3837,2.3854,2.3985,2.4009,2.4075,2.3968,2.4316,2.4325,2.4333,2.4387,2.4402,2.4415,0,0,0,0,0,2.338,2.3491,2.3482,2.351,2.3654,2.3765,2.3784,2.3801,2.376,2.3815,2.3851,2.3835,2.4052,2.3997,2.4025,2.4094,2.4313,2.4323,2.4332,2.4381,2.4399,2.4415,0,0,0,0,0,0,2.3423,2.3501,2.3492,2.3629,2.3691,2.3761,2.383,2.3821,2.3895,2.3887,2.3906,2.3924,2.4047,2.4083,2.402,2.4232,2.4177,2.4192,2.4204,2.4223,2.4236,2.4225,2.3976,0,0,0,0,0,2.3449,2.3533,2.3595,2.3711,2.3742,2.378,2.3829,2.3837,2.3902,2.3928,2.3973,2.4036,2.4119,2.4173,2.4252,2.4392,2.4408,2.4453,2.4467,2.4479,2.4492,2.4566,2.4587,2.4369,2.4369,2.4369,0,0,2.3502,2.3555,2.3607,2.372,2.3769,2.3854,2.3803,2.3896,2.3959,2.3942,2.4059,2.4095,2.4166,2.4297,2.4358,2.4331,2.4555,2.4491,2.45,2.4507,2.4579,2.4599,2.4617,2.4376,2.4375,2.4374,0,0,2.3643,2.3692,2.3792,2.3842,2.3915,2.394,2.3964,2.4035,2.4058,2.4176,2.4164,2.4239,2.4382,2.4432,2.4477,2.4634,2.4621,2.466,2.4733,2.4806,2.4823,2.4838,2.4893,2.4912,2.4673,2.4673,2.4673,0,2.3701,2.3829,2.3845,2.3939,2.3989,2.3976,2.4077,2.4124,2.422,2.4254,2.4223,2.44,2.4447,2.4589,2.4627,2.4664,2.4691,2.4651,2.4819,2.4835,2.4849,2.4901,2.4922,2.4677,2.4676,2.4676,2.4676,0,2.3895,2.3984,2.4056,2.4148,2.4206,2.4303,2.4333,2.4389,2.4392,2.4419,2.4538,2.4595,2.4684,2.4718,2.4722,2.486,2.4841,2.4815,2.4759,2.4874,2.4923,2.4943,2.4683,2.4681,2.468,2.4679,0,0,2.4068,2.4166,2.4192,2.4233,2.4312,2.4381,2.4477,2.4564,2.4611,2.4677,2.4757,2.4877,2.4852,2.4902,2.4911,2.4975,2.5094,2.4941,2.4942,2.4966,2.5247,2.5266,2.5289,2.5086,2.509,2.5093,2.5241,0,2.4215,2.4384,2.44,2.4552,2.4633,2.4621,2.4704,2.4762,2.479,2.4862,2.4893,2.4977,2.4939,2.4969,2.5031,2.5066,2.5151,2.5056,2.5159,2.5163,2.5141,2.5315,2.5336,2.5473,2.5261,2.5264,2.5266,0,2.441,2.4481,2.464,2.4706,2.4741,2.4815,2.4895,2.4965,2.5029,2.5044,2.51,2.51,2.5197,2.5138,2.5271,2.5206,2.5249,2.5273,2.5278,2.5288,2.5221,2.5329,2.5518,2.5538,2.5297,2.5295,2.5292,0,2.4518,2.4653,2.4765,2.4801,2.4881,2.4933,2.4969,2.5029,2.508,2.5149,2.5182,2.5262,2.5306,2.5367,2.5388,2.5344,2.5521,2.5463,2.5535,2.5535,2.5573,2.557,2.577,2.5602,2.5602,2.5602,2.5601,0,2.468,2.4778,2.4815,2.4884,2.4992,2.5009,2.5115,2.5148,2.5202,2.5276,2.5271,2.5341,2.5365,2.5439,2.5456,2.5563,2.5583,2.5597,2.5601,2.5598,2.5596,2.5626,2.5616,2.5607,2.5606,2.5605,2.5604,0,2.482,2.4849,2.497,2.5035,2.5054,2.5131,2.5186,2.5252,2.5278,2.5372,2.5395,2.5436,2.5522,2.555,2.5654,2.5665,2.579,2.5785,2.5768,2.5768,2.5838,2.5831,2.6064,2.6095,2.5907,2.5909,2.5911,0,2.4921,2.4995,2.5068,2.5118,2.5155,2.5235,2.5286,2.5305,2.5358,2.5436,2.5492,2.5577,2.5646,2.5784,2.5823,2.5902,2.5898,2.5974,2.591,2.5904,2.5898,2.5893,2.59,2.5986,2.5988,2.599,2.5991,0,2.5097,2.5107,2.5181,2.5259,2.532,2.5383,2.5443,2.5484,2.5511,2.5571,2.5659,2.5712,2.5818,2.5902,2.5982,2.6018,2.6009,2.6011,2.6032,2.6029,2.6016,2.6022,2.58,2.6006,2.6004,2.6003,2.6002,2.6002,2.522,2.5284,2.5345,2.5427,2.5474,2.553,2.5595,2.5628,2.5702,2.5789,2.5796,2.589,2.595,2.6057,2.6097,2.617,2.6148,2.6179,2.6186,2.6193,2.6198,2.6004,2.6185,2.6185,2.6184,2.6184,2.6184,0,2.5394,2.5432,2.5507,2.5591,2.5655,2.5641,2.5706,2.5761,2.5844,2.5901,2.5968,2.6068,2.6149,2.6193,2.6274,2.6324,2.6322,2.6344,2.6341,2.6349,2.6214,2.6187,2.6345,2.6345,2.6345,2.6345,2.6345,2.6344,2.5492,2.5601,2.5618,2.5749,2.5786,2.5878,2.5917,2.5968,2.6013,2.6125,2.6192,2.622,2.6272,2.6355,2.6429,2.6439,2.6469,2.6494,2.6502,2.6375,2.6358,2.6343,2.6318,2.65,2.65,2.6631,2.6632,2.6633]}]]